Location: Unspecified
(44.4377°N, 88.0525°W)
Time: 16:23:51
(UTC-05:00)

Resurs 1-4 Rocket - Visible Passes

Search period start: 22 July 2014 00:00
Search period end: 01 August 2014 00:00
Orbit: 800 x 815 km, 98.3° (Epoch: 21 July)

Date Brightness Start Highest point End Pass type
(mag) Time Alt. Az. Time Alt. Az. Time Alt. Az.
22 Jul 3.2 04:38:35 10° NNE 04:43:37 44° E 04:48:36 10° S visible
23 Jul 4.0 04:14:36 10° NE 04:19:03 27° E 04:23:27 10° SSE visible
24 Jul 4.6 03:51:05 10° NE 03:54:23 17° E 03:57:40 10° SE visible
26 Jul 3.1 04:40:48 10° NNE 04:45:52 47° E 04:50:54 10° S visible
27 Jul 3.9 04:16:47 10° NE 04:21:19 29° E 04:25:48 10° SSE visible
28 Jul 4.6 03:53:11 10° NE 03:56:39 18° E 04:00:07 10° SE visible
29 Jul 5.0 03:31:29 10° E 03:31:54 10° E 03:32:20 10° E visible
30 Jul 3.0 04:43:01 10° NNE 04:48:08 49° E 04:53:12 10° S visible
31 Jul 3.8 04:18:58 10° NE 04:23:35 30° E 04:28:09 10° SSE visible
